Location: Chiroubles
(46.1812°N, 4.6660°E)
Time: 06:45:31
(UTC+00:00)

Transit 4A - Pass Details

Date: 03 December 2020
Orbit: 864 x 980 km, 66.8° (Epoch: 25 January)

Event Time Altitude Azimuth Distance (km) Brightness Sun altitude
Rises 08:27:42 0° 253° (WSW) 3,650 10.7 10.0°
Reaches altitude 10° 08:30:40 10° 265° (W) 2,717 10.0 10.4°
Maximum altitude 08:36:01 28° 322° (NW) 1,768 8.9 11.0°
Drops below altitude 10° 08:41:26 10° 20° (NNE) 2,741 10.1 11.6°
Sets 08:44:27 0° 32° (NNE) 3,687 10.8 11.9°
